Simultaneous Nadir Overpasses (SNOs) Predictions

Prediction of SNOs between METOP-A and NPP Satellite Orbit:

Table of predicted SNOs for the next 14.0 days since TLE Epoch: 6/19/2015
Index Date (METOP-A) Time (METOP-A) Lat,Lon (METOP-A) SZA (METOP-A ) Date (NPP) Time (NPP) Lat,Lon (NPP) SZA (NPP ) Distance(km) Time Diff (sec)
1 06/25/2015 08:14:25 73.68, 50.00 50.34 06/25/2015 08:13:16 73.69, 47.71 50.48 71.44 69
2 06/25/2015 09:05:08 -73.61,-142.82 129.72 06/25/2015 09:03:58 -73.59,-144.73 129.64 60.17 70
3 06/25/2015 09:55:51 73.40, 24.03 50.10 06/25/2015 09:54:39 73.40, 23.01 50.16 32.42 72
4 06/25/2015 10:46:35 -73.29,-168.89 130.00 06/25/2015 10:45:21 -73.29,-169.44 129.96 17.72 74
5 06/25/2015 11:37:17 73.18, -1.81 49.90 06/25/2015 11:36:04 73.15, -1.82 49.89 2.71 73
6 06/25/2015 12:27:59 -73.17, 165.50 130.11 06/25/2015 12:26:48 -73.15, 165.50 130.11 1.76 71
7 06/25/2015 13:18:39 73.15, -27.20 49.88 06/25/2015 13:17:34 73.16, -27.21 49.90 0.93 65
8 06/25/2015 14:09:21 -73.14, 140.10 130.13 06/25/2015 14:08:18 -73.16, 140.11 130.10 1.75 63
9 06/25/2015 15:00:01 73.13, -52.60 49.86 06/25/2015 14:59:03 73.11, -52.49 49.86 3.54 58
10 06/25/2015 15:50:42 -73.17, 114.82 130.11 06/25/2015 15:49:48 -73.16, 114.72 130.09 3.29 54
11 06/25/2015 16:41:22 73.15, -77.88 49.88 06/25/2015 16:40:33 73.12, -77.88 49.87 3.25 49
12 06/25/2015 17:32:04 -73.14, 89.43 130.13 06/25/2015 17:31:17 -73.12, 89.44 130.14 2.45 47
13 06/25/2015 18:22:44 73.13,-103.27 49.86 06/25/2015 18:22:03 73.13,-103.27 49.88 0.30 41
14 06/25/2015 19:13:26 -73.12, 64.03 130.15 06/25/2015 19:12:47 -73.13, 64.05 130.13 1.19 39
15 06/25/2015 20:04:05 73.15,-128.56 49.89 06/25/2015 20:03:33 73.14,-128.66 49.89 3.80 32
16 06/25/2015 20:54:47 -73.14, 38.75 130.12 06/25/2015 20:54:17 -73.13, 38.66 130.12 3.08 30
17 06/25/2015 21:45:27 73.13,-153.95 49.87 06/25/2015 21:45:03 73.14,-154.05 49.89 3.69 24
18 06/25/2015 22:36:09 -73.12, 13.36 130.14 06/25/2015 22:35:46 -73.09, 13.38 130.17 3.16 23
19 06/25/2015 23:26:49 73.10,-179.34 49.85 06/25/2015 23:26:32 73.10,-179.33 49.85 0.50 17
20 06/26/2015 00:17:31 -73.09, -12.04 130.16 06/26/2015 00:17:16 -73.10, -12.01 130.16 0.94 15
21 06/26/2015 01:08:11 73.08, 155.26 49.83 06/26/2015 01:08:02 73.11, 155.28 49.86 3.32 9
22 06/26/2015 01:58:52 -73.12, -37.32 130.14 06/26/2015 01:58:46 -73.10, -37.40 130.15 3.05 6
23 06/26/2015 02:49:32 73.10, 129.98 49.85 06/26/2015 02:49:32 73.11, 129.89 49.87 3.12 0
24 06/26/2015 03:40:14 -73.09, -62.71 130.16 06/26/2015 03:40:16 -73.11, -62.79 130.14 3.07 2
25 06/26/2015 04:30:54 73.08, 104.58 49.83 06/26/2015 04:31:01 73.07, 104.61 49.82 1.14 7
26 06/26/2015 05:21:36 -73.07, -88.11 130.18 06/26/2015 05:21:45 -73.07, -88.07 130.18 1.20 9
27 06/26/2015 06:12:16 73.05, 79.19 49.81 06/26/2015 06:12:31 73.08, 79.22 49.83 2.86 15
28 06/26/2015 07:02:57 -73.10,-113.39 130.15 06/26/2015 07:03:15 -73.07,-113.46 130.17 3.19 18
29 06/26/2015 07:53:37 73.08, 53.91 49.84 06/26/2015 07:54:01 73.08, 53.83 49.84 2.60 24
30 06/26/2015 08:44:19 -73.07,-138.78 130.17 06/26/2015 08:44:45 -73.08,-138.85 130.16 2.43 26
31 06/26/2015 09:34:59 73.05, 28.51 49.82 06/26/2015 09:35:30 73.04, 28.55 49.80 1.79 31
32 06/26/2015 10:25:41 -73.05,-164.18 130.19 06/26/2015 10:26:14 -73.04,-164.13 130.21 1.73 33
33 06/26/2015 11:16:21 73.03, 3.12 49.80 06/26/2015 11:17:00 73.05, 3.16 49.81 2.49 39
34 06/26/2015 12:07:03 -73.02, 170.43 130.21 06/26/2015 12:07:44 -73.04, 170.48 130.20 3.11 41
35 06/26/2015 12:57:42 73.05, -22.17 49.83 06/26/2015 12:58:30 73.05, -22.23 49.82 2.17 48
36 06/26/2015 13:48:24 -73.05, 145.15 130.18 06/26/2015 13:49:14 -73.05, 145.09 130.19 1.87 50
37 06/26/2015 14:39:04 73.03, -47.56 49.81 06/26/2015 14:39:59 73.01, -47.51 49.78 2.44 55
38 06/26/2015 15:29:46 -73.02, 119.75 130.20 06/26/2015 15:30:43 -73.01, 119.81 130.23 2.36 57
39 06/26/2015 16:20:26 73.00, -72.95 49.79 06/26/2015 16:21:29 73.02, -72.90 49.79 2.25 63
40 06/26/2015 17:11:08 -73.00, 94.36 130.22 06/26/2015 17:12:13 -73.02, 94.42 130.22 2.80 65
41 06/26/2015 18:01:47 73.03, -98.24 49.81 06/26/2015 18:02:59 73.03, -98.29 49.80 1.88 72
42 06/26/2015 18:52:29 -73.02, 69.08 130.20 06/26/2015 18:53:43 -73.02, 69.03 130.21 1.46 74
43 06/26/2015 19:43:13 72.80,-124.06 49.61 06/26/2015 19:44:25 72.83,-123.25 49.59 26.55 72
44 06/26/2015 20:33:57 -72.69, 43.05 130.48 06/26/2015 20:35:08 -72.78, 44.17 130.48 38.19 71
45 06/26/2015 21:24:41 72.47,-150.07 49.33 06/26/2015 21:25:49 72.53,-148.02 49.26 68.94 68
46 06/26/2015 22:15:24 -72.42, 17.15 130.72 06/26/2015 22:16:32 -72.48, 19.40 130.79 75.97 68




NCC Satellite Simultaneous Nadir Overpasses (SNOs) Prediction Service
